Date String (YYYY-MM-DD hh:mm:ss) UTC,Instrument flags,Ambient pressure (hPa),Sample flow (lpm),Bypass flow (lpm),Sample temperature (°C),Ambient temperature (°C),ASC tube jacket temperature (°C),LED temperature (°C),Box temperature (°C),Sample RH (%),Span deviation,Mass concentration (μg/m³),Mass concentration (μg/m³),Mass concentration (μg/m³)
DateTimeUTC,F1_M11,P_M11,Q1_M11,Q2_M11,T1_M11,T2_M11,T3_M11,T4_M11,T5_M11,U1_M11,ZSPAN_M11,X0_M11,X2_M11,X1_M11
2021-09-28 20:00:00,,0818.7,5.00,0.00,29.3,26.0,00.0,38.4,30.6,15.9,0002.4,0015.10,0008.46,0007.88
2021-09-28 20:01:00,,0818.5,5.00,0.00,29.2,25.8,00.0,38.4,30.5,16.0,0002.2,0016.53,0008.49,0007.88
2021-09-28 20:02:00,,0818.5,5.01,0.00,29.2,26.2,00.0,38.3,30.7,16.0,0002.2,0016.82,0008.50,0007.87
2021-09-28 20:03:00,,0818.5,5.00,0.00,29.2,26.7,00.0,38.3,30.9,15.9,0002.2,0016.90,0008.58,0007.86
2021-09-28 20:04:00,,0818.5,4.99,0.00,29.2,27.1,00.0,38.3,30.9,16.2,0002.2,0017.39,0008.68,0007.85
2021-09-28 20:05:00,,0818.5,5.01,0.00,29.2,27.5,00.0,38.3,31.0,16.1,0002.1,0018.07,0008.69,0007.85
2021-09-28 20:06:00,,0818.5,5.00,0.00,29.3,27.9,00.0,38.3,31.1,16.1,0002.1,0018.62,0008.69,0007.83
2021-09-28 20:07:00,,0818.4,5.01,0.00,29.3,28.2,00.0,38.3,31.2,16.1,0002.1,0019.43,0008.67,0007.80
2021-09-28 20:08:00,,0818.5,5.00,0.00,29.4,28.4,00.0,38.3,31.3,16.2,0001.9,0019.91,0008.67,0007.79
2021-09-28 20:09:00,,0818.5,5.00,0.00,29.5,28.5,00.0,38.4,31.3,16.2,0001.7,0019.85,0008.64,0007.80
2021-09-28 20:10:00,,0818.4,5.02,0.00,29.4,27.1,00.0,38.4,31.0,15.8,0001.7,0019.92,0008.61,0007.79
2021-09-28 20:11:00,,0818.4,5.00,0.00,29.3,25.8,00.0,38.3,30.6,15.9,0001.8,0019.44,0008.60,0007.79
2021-09-28 20:12:00,,0818.4,4.99,0.00,29.2,26.0,00.0,38.3,30.6,16.0,0002.1,0018.30,0008.55,0007.79
2021-09-28 20:13:00,,0818.4,5.00,0.00,29.1,26.4,00.0,38.3,30.7,16.3,0002.2,0018.43,0008.54,0007.78
2021-09-28 20:14:00,,0818.4,4.99,0.00,29.1,26.9,00.0,38.3,30.8,16.2,0002.2,0017.66,0008.50,0007.79
2021-09-28 20:15:00,,0818.4,5.01,0.00,29.2,27.3,00.0,38.3,30.9,16.4,0002.3,0017.90,0008.39,0007.76
2021-09-28 20:16:00,,0818.4,5.01,0.00,29.2,27.7,00.0,38.3,31.0,16.5,0002.1,0017.78,0008.35,0007.76
2021-09-28 20:17:00,,0818.4,4.99,0.00,29.3,28.0,00.0,38.2,31.1,16.0,0002.0,0017.38,0008.30,0007.75
2021-09-28 20:18:00,,0818.4,5.01,0.00,29.3,28.2,00.0,38.3,31.2,16.1,0001.7,0016.59,0008.31,0007.75
2021-09-28 20:19:00,,0818.4,4.99,0.00,29.4,28.4,00.0,38.3,31.3,15.9,0001.8,0016.17,0008.29,0007.76
2021-09-28 20:20:00,,0818.4,5.01,0.00,29.4,28.6,00.0,38.3,31.4,16.0,0001.9,0016.20,0008.29,0007.76
2021-09-28 20:21:00,,0818.4,4.99,0.00,29.4,27.5,00.0,38.3,31.1,16.1,0002.0,0016.36,0008.31,0007.77
2021-09-28 20:22:00,,0818.4,5.00,0.00,29.2,25.7,00.0,38.3,30.6,16.0,0002.0,0017.39,0008.33,0007.78
2021-09-28 20:23:00,,0818.4,5.00,0.00,29.1,25.7,00.0,38.3,30.5,16.4,0001.9,0017.94,0008.38,0007.81
2021-09-28 20:24:00,,0818.4,5.01,0.00,29.1,26.2,00.0,38.3,30.7,16.4,0001.8,0018.07,0008.43,0007.84
2021-09-28 20:25:00,,0818.4,5.00,0.00,29.1,26.7,00.0,38.2,30.8,16.5,0001.8,0018.93,0008.51,0007.85
2021-09-28 20:26:00,,0818.3,5.00,0.00,29.1,27.1,00.0,38.2,30.9,16.4,0001.5,0020.31,0008.61,0007.88
2021-09-28 20:27:00,,0818.4,4.99,0.00,29.2,27.5,00.0,38.2,31.0,16.0,0001.6,0019.80,0008.65,0007.91
2021-09-28 20:28:00,,0818.3,4.99,0.00,29.2,27.9,00.0,38.2,31.1,15.9,0001.8,0019.68,0008.71,0007.95
2021-09-28 20:29:00,,0818.3,5.01,0.00,29.3,28.1,00.0,38.2,31.2,15.9,0002.0,0019.69,0008.73,0007.98
2021-09-28 20:30:00,,0818.3,5.01,0.00,29.3,28.4,00.0,38.2,31.3,15.8,0002.2,0021.33,0008.78,0008.00
2021-09-28 20:31:00,,0818.3,4.98,0.00,29.4,28.5,00.0,38.3,31.3,16.0,0002.2,0022.41,0008.87,0008.02
2021-09-28 20:32:00,,0818.3,5.00,0.00,29.5,28.6,00.0,38.3,31.4,15.7,0002.1,0022.39,0008.94,0008.05
2021-09-28 20:33:00,,0818.3,4.99,0.00,29.4,27.1,00.0,38.3,31.0,15.3,0002.2,0022.23,0008.97,0008.07
2021-09-28 20:34:00,,0818.2,5.00,0.00,29.2,25.8,00.0,38.3,30.6,15.4,0002.2,0022.58,0009.00,0008.09
2021-09-28 20:35:00,,0818.2,5.01,0.00,29.1,26.0,00.0,38.3,30.6,15.5,0002.1,0023.05,0009.05,0008.09
2021-09-28 20:36:00,,0818.2,5.00,0.00,29.1,26.4,00.0,38.3,30.8,15.6,0002.1,0022.29,0009.04,0008.13
2021-09-28 20:37:00,,0818.2,5.00,0.00,29.1,26.9,00.0,38.2,30.9,15.8,0002.1,0020.74,0008.98,0008.14
2021-09-28 20:38:00,,0818.2,5.00,0.00,29.2,27.3,00.0,38.2,30.9,15.1,0002.1,0020.38,0008.97,0008.17
2021-09-28 20:39:00,,0818.2,4.98,0.00,29.2,27.7,00.0,38.2,31.0,14.8,0002.2,0021.31,0009.03,0008.18
2021-09-28 20:40:00,,0818.2,5.01,0.00,29.3,28.0,00.0,38.2,31.1,14.8,0002.2,0022.25,0009.06,0008.19
2021-09-28 20:41:00,,0818.1,5.00,0.00,29.3,28.2,00.0,38.3,31.2,14.7,0002.2,0021.08,0009.10,0008.22
2021-09-28 20:42:00,,0818.2,5.00,0.00,29.4,28.4,00.0,38.3,31.3,14.8,0002.0,0020.44,0009.16,0008.26
2021-09-28 20:43:00,,0818.2,4.98,0.00,29.4,28.1,00.0,38.3,31.2,15.0,0002.1,0021.80,0009.21,0008.32
2021-09-28 20:44:00,,0818.1,5.01,0.00,29.3,26.2,00.0,38.3,30.7,14.9,0002.2,0022.06,0009.23,0008.35
2021-09-28 20:45:00,,0818.2,5.00,0.00,29.1,25.6,00.0,38.3,30.5,14.9,0001.8,0020.92,0009.23,0008.38
2021-09-28 20:46:00,,0818.0,5.01,0.00,29.1,26.0,00.0,38.2,30.6,14.9,0001.8,0019.88,0009.25,0008.41
2021-09-28 20:47:00,,0818.0,5.00,0.00,29.1,26.5,00.0,38.2,30.7,14.8,0001.8,0020.07,0009.20,0008.42
2021-09-28 20:48:00,,0818.0,5.00,0.00,29.1,26.9,00.0,38.2,30.8,14.8,0001.7,0020.70,0009.18,0008.43
2021-09-28 20:49:00,,0818.0,5.00,0.00,29.1,27.4,00.0,38.2,30.9,15.0,0001.7,0020.79,0009.17,0008.44
2021-09-28 20:50:00,,0818.0,5.00,0.00,29.2,27.7,00.0,38.2,31.0,15.0,0001.7,0020.82,0009.20,0008.49
2021-09-28 20:51:00,,0818.0,5.00,0.00,29.2,28.0,00.0,38.2,31.1,15.0,0001.7,0020.06,0009.21,0008.54
2021-09-28 20:52:00,,0818.0,5.01,0.00,29.3,28.3,00.0,38.2,31.2,14.8,0001.5,0019.63,0009.21,0008.56
2021-09-28 20:53:00,,0818.0,5.01,0.00,29.4,28.5,00.0,38.2,31.3,14.8,0001.6,0019.40,0009.16,0008.57
2021-09-28 20:54:00,,0818.0,4.99,0.00,29.4,28.4,00.0,38.3,31.3,14.8,0001.5,0017.78,0009.13,0008.56
2021-09-28 20:55:00,,0818.0,5.00,0.00,29.3,26.7,00.0,38.3,30.9,14.8,0001.6,0018.26,0009.21,0008.59
2021-09-28 20:56:00,,0818.0,5.00,0.00,29.2,25.7,00.0,38.3,30.6,14.7,0001.9,0018.47,0009.23,0008.61
2021-09-28 20:57:00,,0818.0,5.01,0.00,29.1,26.0,00.0,38.3,30.6,14.8,0001.9,0018.92,0009.21,0008.60
2021-09-28 20:58:00,,0818.0,4.99,0.00,29.1,26.4,00.0,38.2,30.7,14.6,0002.0,0018.84,0009.23,0008.62
2021-09-28 20:59:00,,0818.0,5.00,0.00,29.1,26.9,00.0,38.2,30.8,14.4,0002.2,0017.75,0009.22,0008.62
